Previsão horária em Plewina

Hoje, 27 Fevereiro, Sábado

Tempo Temperatura Precipitação Vento Pressão Humidade
00:00 +3°C° 0 mm 5 m/s 750 mmHg 86%
01:00 +3°C° 0 mm 4 m/s 750 mmHg 86%
02:00 +1°C° 0 mm 4 m/s 750 mmHg 88%
03:00 +1°C° 0 mm 4 m/s 750 mmHg 90%
04:00 0°C° 0 mm 4 m/s 750 mmHg 92%
05:00 0°C° 0 mm 5 m/s 750 mmHg 92%
06:00 0°C° 0 mm 5 m/s 751 mmHg 92%
07:00 -1°C° 0 mm 6 m/s 751 mmHg 91%
08:00 +1°C° 0 mm 6 m/s 752 mmHg 90%
09:00 +1°C° 0 mm 6 m/s 752 mmHg 89%
10:00 +1°C° 0 mm 6 m/s 752 mmHg 88%
11:00 +1°C° 0 mm 6 m/s 753 mmHg 85%
12:00 +2°C° 0 mm 6 m/s 753 mmHg 81%
13:00 +2°C° 0 mm 6 m/s 753 mmHg 78%
14:00 +2°C° 0 mm 6 m/s 753 mmHg 78%
15:00 +2°C° 0 mm 6 m/s 753 mmHg 77%
16:00 +2°C° 0 mm 5 m/s 753 mmHg 77%
17:00 +2°C° 0 mm 5 m/s 754 mmHg 78%
18:00 +3°C° 0 mm 4 m/s 754 mmHg 79%
19:00 +3°C° 0 mm 3 m/s 754 mmHg 80%
20:00 +2°C° 0 mm 3 m/s 755 mmHg 83%
21:00 +1°C° 0 mm 4 m/s 755 mmHg 86%
22:00 0°C° 0 mm 4 m/s 755 mmHg 90%
23:00 +1°C° 0 mm 3 m/s 755 mmHg 91%

Amanhã, 28 Fevereiro, Domingo

Tempo Temperatura Precipitação Vento Pressão Humidade
00:00 0°C° 0 mm 3 m/s 755 mmHg 93%
01:00 0°C° 0 mm 3 m/s 756 mmHg 95%
02:00 -1°C° 0 mm 3 m/s 755 mmHg 95%
03:00 -1°C° 0 mm 3 m/s 755 mmHg 95%
04:00 -1°C° 0 mm 3 m/s 755 mmHg 95%
05:00 -1°C° 0 mm 3 m/s 755 mmHg 95%
06:00 -1°C° 0 mm 4 m/s 755 mmHg 95%
07:00 -1°C° 0 mm 4 m/s 755 mmHg 95%
08:00 -1°C° 0 mm 4 m/s 755 mmHg 91%
09:00 0°C° 0 mm 4 m/s 754 mmHg 88%
10:00 +1°C° 0 mm 5 m/s 754 mmHg 84%
11:00 +2°C° 0 mm 5 m/s 754 mmHg 80%
12:00 +3°C° 0 mm 5 m/s 754 mmHg 75%
13:00 +6°C° 0 mm 5 m/s 754 mmHg 71%
14:00 +6°C° 0 mm 5 m/s 753 mmHg 70%
15:00 +6°C° 0 mm 5 m/s 753 mmHg 70%
16:00 +6°C° 0 mm 5 m/s 753 mmHg 70%
17:00 +6°C° 0 mm 5 m/s 753 mmHg 75%
18:00 +5°C° 0 mm 5 m/s 753 mmHg 79%
19:00 +3°C° 0 mm 5 m/s 753 mmHg 83%
20:00 +3°C° 0 mm 4 m/s 753 mmHg 85%
21:00 +3°C° 0 mm 3 m/s 753 mmHg 87%
22:00 +3°C° 0 mm 2 m/s 754 mmHg 88%
23:00 +2°C° 0 mm 2 m/s 754 mmHg 91%

Depois de amanhã, 1 Março, Segunda-feira

Tempo Temperatura Precipitação Vento Pressão Humidade
00:00 +2°C° 0 mm 2 m/s 754 mmHg 93%
01:00 +1°C° 0 mm 2 m/s 754 mmHg 95%
02:00 +1°C° 0 mm 2 m/s 754 mmHg 96%
03:00 +1°C° 0 mm 2 m/s 754 mmHg 96%
04:00 -1°C° 0 mm 2 m/s 754 mmHg 97%
05:00 -1°C° 0 mm 2 m/s 754 mmHg 97%
06:00 +1°C° 0 mm 1 m/s 755 mmHg 97%
07:00 +1°C° 0 mm 1 m/s 755 mmHg 97%
08:00 +2°C° 0 mm 1 m/s 755 mmHg 90%
09:00 +4°C° 0 mm 1 m/s 755 mmHg 84%
10:00 +5°C° 0 mm 1 m/s 755 mmHg 78%
11:00 +6°C° 0 mm 1 m/s 755 mmHg 74%
12:00 +7°C° 0 mm 1 m/s 755 mmHg 69%
13:00 +7°C° 0 mm 2 m/s 755 mmHg 65%
14:00 +9°C° 0 mm 1 m/s 755 mmHg 64%
15:00 +9°C° 0 mm 1 m/s 755 mmHg 63%
16:00 +9°C° 0 mm 1 m/s 755 mmHg 63%
17:00 +8°C° 0 mm 1 m/s 755 mmHg 67%
18:00 +7°C° 0 mm 1 m/s 755 mmHg 72%
19:00 +6°C° 0 mm 1 m/s 755 mmHg 76%
20:00 +6°C° 0 mm 1 m/s 755 mmHg 79%
21:00 +5°C° 0 mm 1 m/s 755 mmHg 81%
22:00 +4°C° 0 mm 2 m/s 755 mmHg 84%
23:00 +3°C° 0 mm 2 m/s 755 mmHg 85%

2 Março, Terça-feira

Tempo Temperatura Precipitação Vento Pressão Humidade
00:00 +3°C° 0 mm 2 m/s 755 mmHg 87%
01:00 +3°C° 0 mm 2 m/s 755 mmHg 89%
02:00 +2°C° 0 mm 2 m/s 755 mmHg 89%
03:00 +2°C° 0 mm 2 m/s 754 mmHg 89%
04:00 +2°C° 0 mm 2 m/s 754 mmHg 90%
05:00 +2°C° 0 mm 2 m/s 754 mmHg 90%
06:00 +2°C° 0 mm 2 m/s 754 mmHg 90%
07:00 +1°C° 0 mm 2 m/s 754 mmHg 90%
08:00 +3°C° 0 mm 2 m/s 754 mmHg 82%
09:00 +5°C° 0 mm 2 m/s 754 mmHg 75%
10:00 +7°C° 0 mm 2 m/s 754 mmHg 67%
11:00 +8°C° 0 mm 2 m/s 754 mmHg 62%
12:00 +9°C° 0 mm 2 m/s 754 mmHg 57%
13:00 +10°C° 0 mm 2 m/s 754 mmHg 51%
14:00 +12°C° 0 mm 1 m/s 754 mmHg 52%
15:00 +12°C° 0 mm 1 m/s 753 mmHg 52%
16:00 +12°C° 0 mm 1 m/s 753 mmHg 52%
17:00 +11°C° 0 mm 1 m/s 753 mmHg 56%
18:00 +10°C° 0 mm 1 m/s 753 mmHg 61%
19:00 +8°C° 0 mm 1 m/s 753 mmHg 65%
20:00 +8°C° 0 mm 1 m/s 753 mmHg 67%
21:00 +7°C° 0 mm 1 m/s 753 mmHg 69%
22:00 +7°C° 0 mm 1 m/s 753 mmHg 71%
23:00 +6°C° 0 mm 1 m/s 753 mmHg 73%

3 Março, Quarta-feira

Tempo Temperatura Precipitação Vento Pressão Humidade
00:00 +6°C° 0 mm 1 m/s 753 mmHg 74%
01:00 +5°C° 0 mm 1 m/s 752 mmHg 76%
02:00 +5°C° 0 mm 1 m/s 752 mmHg 78%
03:00 +4°C° 0 mm 2 m/s 752 mmHg 80%
04:00 +3°C° 0 mm 2 m/s 752 mmHg 82%
05:00 +3°C° 0 mm 2 m/s 752 mmHg 82%
06:00 +3°C° 0 mm 2 m/s 751 mmHg 83%
07:00 +2°C° 0 mm 2 m/s 751 mmHg 84%
08:00 +4°C° 0 mm 2 m/s 751 mmHg 78%
09:00 +6°C° 0 mm 2 m/s 751 mmHg 72%
10:00 +7°C° 0 mm 2 m/s 751 mmHg 66%
11:00 +8°C° 0 mm 3 m/s 751 mmHg 62%
12:00 +10°C° 0 mm 3 m/s 750 mmHg 58%
13:00 +11°C° 0 mm 3 m/s 750 mmHg 54%
14:00 +11°C° 0 mm 3 m/s 750 mmHg 54%
15:00 +11°C° 0 mm 3 m/s 749 mmHg 55%
16:00 +11°C° 0 mm 3 m/s 749 mmHg 56%
17:00 +10°C° 0 mm 3 m/s 749 mmHg 60%
18:00 +9°C° 0 mm 2 m/s 749 mmHg 65%
19:00 +8°C° 0 mm 2 m/s 748 mmHg 70%
20:00 +7°C° 0 mm 2 m/s 748 mmHg 72%
21:00 +7°C° 0 mm 3 m/s 748 mmHg 75%
22:00 +5°C° 0 mm 3 m/s 748 mmHg 77%
23:00 +5°C° 0 mm 3 m/s 747 mmHg 79%

4 Março, Quinta-feira

Tempo Temperatura Precipitação Vento Pressão Humidade
00:00 +4°C° 0 mm 3 m/s 747 mmHg 81%
01:00 +4°C° 0 mm 3 m/s 746 mmHg 83%
02:00 +4°C° 0 mm 3 m/s 746 mmHg 84%
03:00 +4°C° 0 mm 3 m/s 746 mmHg 84%
04:00 +3°C° 0 mm 3 m/s 745 mmHg 85%
05:00 +3°C° 0 mm 3 m/s 745 mmHg 86%
06:00 +3°C° 0 mm 3 m/s 744 mmHg 87%
07:00 +3°C° 0 mm 3 m/s 744 mmHg 88%
08:00 +4°C° 0 mm 3 m/s 744 mmHg 86%
09:00 +5°C° 0 mm 4 m/s 744 mmHg 83%
10:00 +6°C° 0 mm 4 m/s 743 mmHg 81%
11:00 +7°C° 0 mm 5 m/s 743 mmHg 79%
12:00 +7°C° 0 mm 5 m/s 743 mmHg 77%
13:00 +8°C° 0 mm 5 m/s 742 mmHg 74%
14:00 +8°C° 0 mm 5 m/s 742 mmHg 75%
15:00 +8°C° 0 mm 4 m/s 741 mmHg 76%
16:00 +8°C° 0 mm 4 m/s 741 mmHg 78%
17:00 +7°C° 0.1 mm 4 m/s 740 mmHg 81%
18:00 +8°C° 0.1 mm 3 m/s 740 mmHg 85%
19:00 +7°C° 0.1 mm 3 m/s 740 mmHg 89%
20:00 +7°C° 0.4 mm 3 m/s 740 mmHg 89%
21:00 +5°C° 0.4 mm 3 m/s 740 mmHg 90%
22:00 +5°C° 0.4 mm 4 m/s 740 mmHg 91%
23:00 +4°C° 0 mm 4 m/s 740 mmHg 89%
Mostrar mais

Necessitamos do seu Consentimento

A Meteoprog e os seus Fornecedores de Serviços podem armazenar e aceder a dados pessoais como cookies, identificadores do dispositivo ou outras tecnologias semelhantes existentes no seu dispositivo e processar estes dados para personalizar conteúdos e anúncios, assim como funcionalidades nas redes sociais e análise de tráfego.

  • Armazenar e/ou aceder a informações no seu dispositivo

    Os cookies, identificadores do dispositivo ou outras informações podem ser armazenados ou acedidos no seu dispositivo, para os fins acima indicados.

  • Anúncios e conteúdos personalizados, medição de anúncios e conteúdos, dados sobre o público-alvo e desenvolvimento de produtos

    Os anúncios e os conteúdos podem ser personalizados com base num perfil. Podem ser adicionados dados adicionais para uma maior personalização dos anúncios e dos conteúdos. A eficácia dos anúncios e dos conteúdos pode ser medida. Podem ser obtidas informações sobre o público que visualizou os anúncios e os conteúdos. Estes dados podem ser usados para desenvolver ou melhorar sistemas, softwares ou a experiência do utilizador.

Ao clicar em "Eu concordo”, permitirá o uso de cookies, identificadores do dispositivo e web beacons mencionados ou outras tecnologias semelhantes. As configurações do navegador do seu dispositivo podem ser alteradas.

Para certos fins, podem ser invocados interesses legítimos ao invés de consentimento. Pode ler mais informação sobre este assunto na nossa Política de Privacidade e Cookies.